Year,Month,Day,Hour,Minute,Value (Times are PST for temperature in C)
2010,07,23,00,00,12.40
2010,07,23,00,01,12.40
2010,07,23,00,02,12.40
2010,07,23,00,03,12.40
2010,07,23,00,04,12.40
2010,07,23,00,05,12.40
2010,07,23,00,06,12.40
2010,07,23,00,07,12.40
2010,07,23,00,08,12.40
2010,07,23,00,09,12.40
2010,07,23,00,10,12.40
2010,07,23,00,11,12.40
2010,07,23,00,12,12.40
2010,07,23,00,13,12.40
2010,07,23,00,14,12.40
2010,07,23,00,15,12.50
2010,07,23,00,16,12.50
2010,07,23,00,17,12.50
2010,07,23,00,18,12.50
2010,07,23,00,19,12.50
2010,07,23,00,20,12.50
2010,07,23,00,21,12.50
2010,07,23,00,22,12.40
2010,07,23,00,23,12.40
2010,07,23,00,24,12.40
2010,07,23,00,25,12.40
2010,07,23,00,26,12.40
2010,07,23,00,27,12.40
2010,07,23,00,28,12.40
2010,07,23,00,29,12.30
2010,07,23,00,30,12.30
2010,07,23,00,31,12.30
2010,07,23,00,32,12.30
2010,07,23,00,33,12.30
2010,07,23,00,34,12.30
2010,07,23,00,35,12.30
2010,07,23,00,36,12.30
2010,07,23,00,37,12.30
2010,07,23,00,38,12.40
2010,07,23,00,39,12.40
2010,07,23,00,40,12.40
2010,07,23,00,41,12.40
2010,07,23,00,42,12.40
2010,07,23,00,43,12.40
2010,07,23,00,44,12.40
2010,07,23,00,45,12.40
2010,07,23,00,46,12.40
2010,07,23,00,47,12.40
2010,07,23,00,48,12.40
2010,07,23,00,49,12.40
2010,07,23,00,50,12.30
2010,07,23,00,51,12.30
2010,07,23,00,52,12.30
2010,07,23,00,53,12.30
2010,07,23,00,54,12.30
2010,07,23,00,55,12.30
2010,07,23,00,56,12.30
2010,07,23,00,57,12.30
2010,07,23,00,58,12.30
2010,07,23,00,59,12.30
2010,07,23,01,00,12.30
2010,07,23,01,01,12.30
2010,07,23,01,02,12.30
2010,07,23,01,03,12.30
2010,07,23,01,04,12.30
2010,07,23,01,05,12.30
2010,07,23,01,06,12.30
2010,07,23,01,07,12.30
2010,07,23,01,08,12.30
2010,07,23,01,09,12.30
2010,07,23,01,10,12.30
2010,07,23,01,11,12.20
2010,07,23,01,12,12.20
2010,07,23,01,13,12.20
2010,07,23,01,14,12.20
2010,07,23,01,15,12.20
2010,07,23,01,16,12.10
2010,07,23,01,17,12.10
2010,07,23,01,18,12.10
2010,07,23,01,19,12.10
2010,07,23,01,20,12.10
2010,07,23,01,21,12.10
2010,07,23,01,22,12.10
2010,07,23,01,23,12.10
2010,07,23,01,24,12.00
2010,07,23,01,25,12.00
2010,07,23,01,26,12.00
2010,07,23,01,27,12.00
2010,07,23,01,28,12.00
2010,07,23,01,29,12.00
2010,07,23,01,30,12.00
2010,07,23,01,31,12.00
2010,07,23,01,32,12.00
2010,07,23,01,33,12.00
2010,07,23,01,34,11.90
2010,07,23,01,35,11.90
2010,07,23,01,36,11.90
2010,07,23,01,37,11.90
2010,07,23,01,38,11.90
2010,07,23,01,39,11.90
2010,07,23,01,40,11.90
2010,07,23,01,41,11.90
2010,07,23,01,42,11.90
2010,07,23,01,43,11.80
2010,07,23,01,44,11.80
2010,07,23,01,45,11.80
2010,07,23,01,46,11.80
2010,07,23,01,47,11.80
2010,07,23,01,48,11.80
2010,07,23,01,49,11.80
2010,07,23,01,50,11.80
2010,07,23,01,51,11.80
2010,07,23,01,52,11.80
2010,07,23,01,53,11.80
2010,07,23,01,54,11.80
2010,07,23,01,55,11.80
2010,07,23,01,56,11.80
2010,07,23,01,57,11.80
2010,07,23,01,58,11.80
2010,07,23,01,59,11.70
2010,07,23,02,00,11.70
2010,07,23,02,01,11.70
2010,07,23,02,02,11.70
2010,07,23,02,03,11.70
2010,07,23,02,04,11.70
2010,07,23,02,05,11.70
2010,07,23,02,06,11.70
2010,07,23,02,07,11.60
2010,07,23,02,08,11.60
2010,07,23,02,09,11.60
2010,07,23,02,10,11.60
2010,07,23,02,11,11.60
2010,07,23,02,12,11.60
2010,07,23,02,13,11.60
2010,07,23,02,14,11.60
2010,07,23,02,15,11.60
2010,07,23,02,16,11.60
2010,07,23,02,17,11.60
2010,07,23,02,18,11.60
2010,07,23,02,19,11.60
2010,07,23,02,20,11.60
2010,07,23,02,21,11.60
2010,07,23,02,22,11.60
2010,07,23,02,23,11.60
2010,07,23,02,24,11.60
2010,07,23,02,25,11.60
2010,07,23,02,26,11.60
2010,07,23,02,27,11.60
2010,07,23,02,28,11.60
2010,07,23,02,29,11.50
2010,07,23,02,30,11.40
2010,07,23,02,31,11.40
2010,07,23,02,32,11.40
2010,07,23,02,33,11.40
2010,07,23,02,34,11.40
2010,07,23,02,35,11.40
2010,07,23,02,36,11.40
2010,07,23,02,37,11.40
2010,07,23,02,38,11.40
2010,07,23,02,39,11.40
2010,07,23,02,40,11.40
2010,07,23,02,41,11.30
2010,07,23,02,42,11.30
2010,07,23,02,43,11.30
2010,07,23,02,44,11.20
2010,07,23,02,45,11.20
2010,07,23,02,46,11.30
2010,07,23,02,47,11.30
2010,07,23,02,48,11.30
2010,07,23,02,49,11.30
2010,07,23,02,50,11.30
2010,07,23,02,51,11.30
2010,07,23,02,52,11.30
2010,07,23,02,53,11.20
2010,07,23,02,54,11.20
2010,07,23,02,55,11.20
2010,07,23,02,56,11.30
2010,07,23,02,57,11.30
2010,07,23,02,58,11.30
2010,07,23,02,59,11.30
2010,07,23,03,00,11.30
2010,07,23,03,01,11.30
2010,07,23,03,02,11.30
2010,07,23,03,03,11.30
2010,07,23,03,04,11.30
2010,07,23,03,05,11.30
2010,07,23,03,06,11.30
2010,07,23,03,07,11.30
2010,07,23,03,08,11.30
2010,07,23,03,09,11.30
2010,07,23,03,10,11.30
2010,07,23,03,11,11.30
2010,07,23,03,12,11.30
2010,07,23,03,13,11.30
2010,07,23,03,14,11.30
2010,07,23,03,15,11.30
2010,07,23,03,16,11.20
2010,07,23,03,17,11.20
2010,07,23,03,18,11.20
2010,07,23,03,19,11.20
2010,07,23,03,20,11.20
2010,07,23,03,21,11.20
2010,07,23,03,22,11.20
2010,07,23,03,23,11.20
2010,07,23,03,24,11.20
2010,07,23,03,25,11.20
2010,07,23,03,26,11.20
2010,07,23,03,27,11.20
2010,07,23,03,28,11.20
2010,07,23,03,29,11.20
2010,07,23,03,30,11.20
2010,07,23,03,31,11.20
2010,07,23,03,32,11.20
2010,07,23,03,33,11.20
2010,07,23,03,34,11.20
2010,07,23,03,35,11.20
2010,07,23,03,36,11.20
2010,07,23,03,37,11.10
2010,07,23,03,38,11.10
2010,07,23,03,39,11.20
2010,07,23,03,40,11.20
2010,07,23,03,41,11.20
2010,07,23,03,42,11.20
2010,07,23,03,43,11.20
2010,07,23,03,44,11.20
2010,07,23,03,45,11.20
2010,07,23,03,46,11.10
2010,07,23,03,47,11.20
2010,07,23,03,48,11.20
2010,07,23,03,49,11.20
2010,07,23,03,50,11.20
2010,07,23,03,51,11.20
2010,07,23,03,52,11.20
2010,07,23,03,53,11.20
2010,07,23,03,54,11.20
2010,07,23,03,55,11.20
2010,07,23,03,56,11.20
2010,07,23,03,57,11.20
2010,07,23,03,58,11.20
2010,07,23,03,59,11.20
2010,07,23,04,00,11.10
2010,07,23,04,01,11.10
2010,07,23,04,02,11.10
2010,07,23,04,03,11.10
2010,07,23,04,04,11.10
2010,07,23,04,05,11.10
2010,07,23,04,06,11.10
2010,07,23,04,07,11.10
2010,07,23,04,08,11.10
2010,07,23,04,09,11.10
2010,07,23,04,10,11.10
2010,07,23,04,11,11.10
2010,07,23,04,12,11.20
2010,07,23,04,13,11.20
2010,07,23,04,14,11.20
2010,07,23,04,15,11.20
2010,07,23,04,16,11.20
2010,07,23,04,17,11.20
2010,07,23,04,18,11.20
2010,07,23,04,19,11.20
2010,07,23,04,20,11.20
2010,07,23,04,21,11.20
2010,07,23,04,22,11.20
2010,07,23,04,23,11.10
2010,07,23,04,24,11.10
2010,07,23,04,25,11.10
2010,07,23,04,26,11.10
2010,07,23,04,27,11.10
2010,07,23,04,28,11.10
2010,07,23,04,29,11.10
2010,07,23,04,30,11.10
2010,07,23,04,31,11.10
2010,07,23,04,32,11.10
2010,07,23,04,33,11.10
2010,07,23,04,34,11.20
2010,07,23,04,35,11.20
2010,07,23,04,36,11.20
2010,07,23,04,37,11.30
2010,07,23,04,38,11.30
2010,07,23,04,39,11.40
2010,07,23,04,40,11.40
2010,07,23,04,41,11.40
2010,07,23,04,42,11.40
2010,07,23,04,43,11.40
2010,07,23,04,44,11.30
2010,07,23,04,45,11.30
2010,07,23,04,46,11.30
2010,07,23,04,47,11.20
2010,07,23,04,48,11.20
2010,07,23,04,49,11.20
2010,07,23,04,50,11.20
2010,07,23,04,51,11.20
2010,07,23,04,52,11.20
2010,07,23,04,53,11.20
2010,07,23,04,54,11.20
2010,07,23,04,55,11.10
2010,07,23,04,56,11.10
2010,07,23,04,57,11.10
2010,07,23,04,58,11.10
2010,07,23,04,59,11.10
2010,07,23,05,00,11.10
2010,07,23,05,01,11.10
2010,07,23,05,02,11.10
2010,07,23,05,03,11.10
2010,07,23,05,04,11.10
2010,07,23,05,05,11.10
2010,07,23,05,06,11.10
2010,07,23,05,07,11.10
2010,07,23,05,08,11.00
2010,07,23,05,09,10.90
2010,07,23,05,10,10.90
2010,07,23,05,11,10.90
2010,07,23,05,12,10.90
2010,07,23,05,13,10.90
2010,07,23,05,14,10.90
2010,07,23,05,15,10.80
2010,07,23,05,16,10.80
2010,07,23,05,17,10.80
2010,07,23,05,18,10.80
2010,07,23,05,19,10.80
2010,07,23,05,20,10.70
2010,07,23,05,21,10.70
2010,07,23,05,22,10.70
2010,07,23,05,23,10.60
2010,07,23,05,24,10.60
2010,07,23,05,25,10.60
2010,07,23,05,26,10.60
2010,07,23,05,27,10.60
2010,07,23,05,28,10.60
2010,07,23,05,29,10.60
2010,07,23,05,30,10.60
2010,07,23,05,31,10.60
2010,07,23,05,32,10.60
2010,07,23,05,33,10.60
2010,07,23,05,34,10.60
2010,07,23,05,35,10.50
2010,07,23,05,36,10.40
2010,07,23,05,37,10.40
2010,07,23,05,38,10.40
2010,07,23,05,39,10.40
2010,07,23,05,40,10.40
2010,07,23,05,41,10.40
2010,07,23,05,42,10.40
2010,07,23,05,43,10.40
2010,07,23,05,44,10.40
2010,07,23,05,45,10.40
2010,07,23,05,46,10.40
2010,07,23,05,47,10.40
2010,07,23,05,48,10.40
2010,07,23,05,49,10.40
2010,07,23,05,50,10.40
2010,07,23,05,51,10.40
2010,07,23,05,52,10.40
2010,07,23,05,53,10.40
2010,07,23,05,54,10.40
2010,07,23,05,55,10.40
2010,07,23,05,56,10.40
2010,07,23,05,57,10.40
2010,07,23,05,58,10.40
2010,07,23,05,59,10.40
2010,07,23,06,00,10.40
2010,07,23,06,01,10.40
2010,07,23,06,02,10.40
2010,07,23,06,03,10.40
2010,07,23,06,04,10.40
2010,07,23,06,05,10.40
2010,07,23,06,06,10.40
2010,07,23,06,07,10.40
2010,07,23,06,08,10.40
2010,07,23,06,09,10.40
2010,07,23,06,10,10.40
2010,07,23,06,11,10.40
2010,07,23,06,12,10.40
2010,07,23,06,13,10.40
2010,07,23,06,14,10.40
2010,07,23,06,15,10.40
2010,07,23,06,16,10.40
2010,07,23,06,17,10.40
2010,07,23,06,18,10.50
2010,07,23,06,19,10.60
2010,07,23,06,20,10.60
2010,07,23,06,21,10.60
2010,07,23,06,22,10.60
2010,07,23,06,23,10.60
2010,07,23,06,24,10.60
2010,07,23,06,25,10.60
2010,07,23,06,26,10.60
2010,07,23,06,27,10.70
2010,07,23,06,28,10.70
2010,07,23,06,29,10.70
2010,07,23,06,30,10.70
2010,07,23,06,31,10.70
2010,07,23,06,32,10.80
2010,07,23,06,33,10.80
2010,07,23,06,34,10.90
2010,07,23,06,35,10.90
2010,07,23,06,36,10.90
2010,07,23,06,37,11.00
2010,07,23,06,38,11.10
2010,07,23,06,39,11.10
2010,07,23,06,40,11.10
2010,07,23,06,41,11.20
2010,07,23,06,42,11.20
2010,07,23,06,43,11.30
2010,07,23,06,44,11.30
2010,07,23,06,45,11.40
2010,07,23,06,46,11.40
2010,07,23,06,47,11.40
2010,07,23,06,48,11.50
2010,07,23,06,49,11.60
2010,07,23,06,50,11.70
2010,07,23,06,51,11.70
2010,07,23,06,52,11.80
2010,07,23,06,53,11.80
2010,07,23,06,54,11.80
2010,07,23,06,55,11.90
2010,07,23,06,56,11.90
2010,07,23,06,57,12.00
2010,07,23,06,58,12.00
2010,07,23,06,59,12.00
2010,07,23,07,00,12.10
2010,07,23,07,01,12.10
2010,07,23,07,02,12.10
2010,07,23,07,03,12.10
2010,07,23,07,04,12.10
2010,07,23,07,05,12.20
2010,07,23,07,06,12.20
2010,07,23,07,07,12.20
2010,07,23,07,08,12.30
2010,07,23,07,09,12.30
2010,07,23,07,10,12.40
2010,07,23,07,11,12.50
2010,07,23,07,12,12.60
2010,07,23,07,13,12.60
2010,07,23,07,14,12.70
2010,07,23,07,15,12.80
2010,07,23,07,16,12.80
2010,07,23,07,17,12.80
2010,07,23,07,18,12.90
2010,07,23,07,19,12.90
2010,07,23,07,20,12.90
2010,07,23,07,21,12.90
2010,07,23,07,22,12.90
2010,07,23,07,23,12.90
2010,07,23,07,24,13.00
2010,07,23,07,25,13.00
2010,07,23,07,26,13.00
2010,07,23,07,27,13.10
2010,07,23,07,28,13.10
2010,07,23,07,29,13.20
2010,07,23,07,30,13.20
2010,07,23,07,31,13.20
2010,07,23,07,32,13.30
2010,07,23,07,33,13.30
2010,07,23,07,34,13.30
2010,07,23,07,35,13.30
2010,07,23,07,36,13.40
2010,07,23,07,37,13.40
2010,07,23,07,38,13.50
2010,07,23,07,39,13.50
2010,07,23,07,40,13.60
2010,07,23,07,41,13.80
2010,07,23,07,42,13.90
2010,07,23,07,43,14.00
2010,07,23,07,44,14.20
2010,07,23,07,45,14.20
2010,07,23,07,46,14.30
2010,07,23,07,47,14.30
2010,07,23,07,48,14.30
2010,07,23,07,49,14.40
2010,07,23,07,50,14.40
2010,07,23,07,51,14.50
2010,07,23,07,52,14.60
2010,07,23,07,53,14.60
2010,07,23,07,54,14.70
2010,07,23,07,55,14.80
2010,07,23,07,56,14.80
2010,07,23,07,57,14.70
2010,07,23,07,58,14.60
2010,07,23,07,59,14.40
2010,07,23,08,00,14.30
2010,07,23,08,01,14.20
2010,07,23,08,02,14.20
2010,07,23,08,03,14.20
2010,07,23,08,04,14.10
2010,07,23,08,05,14.10
2010,07,23,08,06,14.00
2010,07,23,08,07,14.00
2010,07,23,08,08,14.00
2010,07,23,08,09,14.00
2010,07,23,08,10,14.10
2010,07,23,08,11,14.20
2010,07,23,08,12,14.20
2010,07,23,08,13,14.20
2010,07,23,08,14,14.30
2010,07,23,08,15,14.40
2010,07,23,08,16,14.50
2010,07,23,08,17,14.60
2010,07,23,08,18,14.70
2010,07,23,08,19,14.90
2010,07,23,08,20,15.00
2010,07,23,08,21,15.10
2010,07,23,08,22,15.10
2010,07,23,08,23,15.10
2010,07,23,08,24,15.10
2010,07,23,08,25,15.20
2010,07,23,08,26,15.30
2010,07,23,08,27,15.30
2010,07,23,08,28,15.30
2010,07,23,08,29,15.40
2010,07,23,08,30,15.40
2010,07,23,08,31,15.50
2010,07,23,08,32,15.50
2010,07,23,08,33,15.60
2010,07,23,08,34,15.60
2010,07,23,08,35,15.70
2010,07,23,08,36,15.70
2010,07,23,08,37,15.70
2010,07,23,08,38,15.70
2010,07,23,08,39,15.70
2010,07,23,08,40,15.70
2010,07,23,08,41,15.80
2010,07,23,08,42,15.80
2010,07,23,08,43,15.70
2010,07,23,08,44,15.60
2010,07,23,08,45,15.50
2010,07,23,08,46,15.30
2010,07,23,08,47,15.30
2010,07,23,08,48,15.30
2010,07,23,08,49,15.30
2010,07,23,08,50,15.40
2010,07,23,08,51,15.50
2010,07,23,08,52,15.50
2010,07,23,08,53,15.50
2010,07,23,08,54,15.60
2010,07,23,08,55,15.70
2010,07,23,08,56,15.80
2010,07,23,08,57,15.90
2010,07,23,08,58,15.90
2010,07,23,08,59,15.90
2010,07,23,09,00,15.90
2010,07,23,09,01,16.00
2010,07,23,09,02,15.90
2010,07,23,09,03,15.90
2010,07,23,09,04,15.90
2010,07,23,09,05,16.10
2010,07,23,09,06,16.10
2010,07,23,09,07,16.20
2010,07,23,09,08,16.30
2010,07,23,09,09,16.40
2010,07,23,09,10,16.60
2010,07,23,09,11,16.70
2010,07,23,09,12,16.70
2010,07,23,09,13,16.70
2010,07,23,09,14,16.80
2010,07,23,09,15,16.90
2010,07,23,09,16,17.00
2010,07,23,09,17,17.00
2010,07,23,09,18,17.10
2010,07,23,09,19,17.10
2010,07,23,09,20,17.00
2010,07,23,09,21,16.80
2010,07,23,09,22,16.70
2010,07,23,09,23,16.60
2010,07,23,09,24,16.50
2010,07,23,09,25,16.50
2010,07,23,09,26,16.60
2010,07,23,09,27,16.70
2010,07,23,09,28,16.60
2010,07,23,09,29,16.60
2010,07,23,09,30,16.60
2010,07,23,09,31,16.70
2010,07,23,09,32,16.60
2010,07,23,09,33,16.60
2010,07,23,09,34,16.70
2010,07,23,09,35,16.70
2010,07,23,09,36,16.70
2010,07,23,09,37,16.70
2010,07,23,09,38,16.60
2010,07,23,09,39,16.40
2010,07,23,09,40,16.30
2010,07,23,09,41,16.40
2010,07,23,09,42,16.30
2010,07,23,09,43,16.20
2010,07,23,09,44,16.20
2010,07,23,09,45,16.10
2010,07,23,09,46,16.20
2010,07,23,09,47,16.40
2010,07,23,09,48,16.40
2010,07,23,09,49,16.40
2010,07,23,09,50,16.40
2010,07,23,09,51,16.40
2010,07,23,09,52,16.40
2010,07,23,09,53,16.50
2010,07,23,09,54,16.60
2010,07,23,09,55,16.70
2010,07,23,09,56,16.70
2010,07,23,09,57,16.70
2010,07,23,09,58,16.70
2010,07,23,09,59,16.70
2010,07,23,10,00,16.90
2010,07,23,10,01,16.90
2010,07,23,10,02,16.80
2010,07,23,10,03,16.70
2010,07,23,10,04,16.70
2010,07,23,10,05,16.70
2010,07,23,10,06,16.70
2010,07,23,10,07,16.70
2010,07,23,10,08,16.80
2010,07,23,10,09,16.80
2010,07,23,10,10,16.90
2010,07,23,10,11,17.00
2010,07,23,10,12,16.80
2010,07,23,10,13,16.80
2010,07,23,10,14,16.80
2010,07,23,10,15,16.80
2010,07,23,10,16,16.90
2010,07,23,10,17,16.90
2010,07,23,10,18,17.00
2010,07,23,10,19,17.10
2010,07,23,10,20,17.10
2010,07,23,10,21,17.20
2010,07,23,10,22,17.20
2010,07,23,10,23,17.20
2010,07,23,10,24,17.20
2010,07,23,10,25,17.20
2010,07,23,10,26,17.20
2010,07,23,10,27,17.20
2010,07,23,10,28,17.20
2010,07,23,10,29,17.20
2010,07,23,10,30,17.20
2010,07,23,10,31,17.20
2010,07,23,10,32,17.20
2010,07,23,10,33,17.30
2010,07,23,10,34,17.30
2010,07,23,10,35,17.30
2010,07,23,10,36,17.20
2010,07,23,10,37,17.20
2010,07,23,10,38,17.30
2010,07,23,10,39,17.30
2010,07,23,10,40,17.30
2010,07,23,10,41,17.40
2010,07,23,10,42,17.30
2010,07,23,10,43,17.30
2010,07,23,10,44,17.20
2010,07,23,10,45,17.20
2010,07,23,10,46,17.20
2010,07,23,10,47,17.20
2010,07,23,10,48,17.00
2010,07,23,10,49,17.00
2010,07,23,10,50,17.00
2010,07,23,10,51,16.90
2010,07,23,10,52,17.00
2010,07,23,10,53,17.00
2010,07,23,10,54,17.20
2010,07,23,10,55,17.30
2010,07,23,10,56,17.30
2010,07,23,10,57,17.40
2010,07,23,10,58,17.40
2010,07,23,10,59,17.30
2010,07,23,11,00,17.10
2010,07,23,11,01,16.90
2010,07,23,11,02,16.80
2010,07,23,11,03,16.80
2010,07,23,11,04,16.90
2010,07,23,11,05,17.00
2010,07,23,11,06,17.10
2010,07,23,11,07,17.10
2010,07,23,11,08,17.30
2010,07,23,11,09,17.10
2010,07,23,11,10,17.00
2010,07,23,11,11,17.00
2010,07,23,11,12,17.10
2010,07,23,11,13,17.20
2010,07,23,11,14,17.30
2010,07,23,11,15,17.30
2010,07,23,11,16,17.30
2010,07,23,11,17,17.50
2010,07,23,11,18,17.60
2010,07,23,11,19,17.70
2010,07,23,11,20,17.60
2010,07,23,11,21,17.60
2010,07,23,11,22,17.50
2010,07,23,11,23,17.60
2010,07,23,11,24,17.60
2010,07,23,11,25,17.60
2010,07,23,11,26,17.70
2010,07,23,11,27,17.70
2010,07,23,11,28,17.70
2010,07,23,11,29,17.50
2010,07,23,11,30,17.50
2010,07,23,11,31,17.70
2010,07,23,11,32,17.70
2010,07,23,11,33,17.90
2010,07,23,11,34,17.90
2010,07,23,11,35,18.00
2010,07,23,11,36,18.10
2010,07,23,11,37,18.20
2010,07,23,11,38,18.30
2010,07,23,11,39,18.30
2010,07,23,11,40,18.20
2010,07,23,11,41,18.20
2010,07,23,11,42,18.30
2010,07,23,11,43,18.40
2010,07,23,11,44,18.40
2010,07,23,11,45,18.40
2010,07,23,11,46,18.30
2010,07,23,11,47,18.10
2010,07,23,11,48,18.20
2010,07,23,11,49,18.20
2010,07,23,11,50,18.20
2010,07,23,11,51,18.20
2010,07,23,11,52,18.20
2010,07,23,11,53,18.20
2010,07,23,11,54,18.30
2010,07,23,11,55,18.40
2010,07,23,11,56,18.50
2010,07,23,11,57,18.60
2010,07,23,11,58,18.70
2010,07,23,11,59,18.80
2010,07,23,12,00,18.80
2010,07,23,12,01,18.90
2010,07,23,12,02,18.70
2010,07,23,12,03,18.60
2010,07,23,12,04,18.60
2010,07,23,12,05,18.70
2010,07,23,12,06,18.80
2010,07,23,12,07,18.70
2010,07,23,12,08,18.70
2010,07,23,12,09,18.70
2010,07,23,12,10,18.70
2010,07,23,12,11,18.70
2010,07,23,12,12,18.90
2010,07,23,12,13,19.00
2010,07,23,12,14,19.10
2010,07,23,12,15,19.10
2010,07,23,12,16,19.10
2010,07,23,12,17,19.20
2010,07,23,12,18,19.30
2010,07,23,12,19,19.40
2010,07,23,12,20,19.50
2010,07,23,12,21,19.60
2010,07,23,12,22,19.70
2010,07,23,12,23,19.60
2010,07,23,12,24,19.50
2010,07,23,12,25,19.40
2010,07,23,12,26,19.40
2010,07,23,12,27,19.40
2010,07,23,12,28,19.60
2010,07,23,12,29,19.70
2010,07,23,12,30,19.80
2010,07,23,12,31,19.80
2010,07,23,12,32,19.80
2010,07,23,12,33,19.80
2010,07,23,12,34,19.90
2010,07,23,12,35,19.90
2010,07,23,12,36,20.00
2010,07,23,12,37,20.10
2010,07,23,12,38,20.20
2010,07,23,12,39,20.10
2010,07,23,12,40,20.00
2010,07,23,12,41,19.90
2010,07,23,12,42,20.10
2010,07,23,12,43,20.20
2010,07,23,12,44,20.20
2010,07,23,12,45,20.30
2010,07,23,12,46,20.30
2010,07,23,12,47,20.40
2010,07,23,12,48,20.30
2010,07,23,12,49,20.20
2010,07,23,12,50,20.10
2010,07,23,12,51,20.10
2010,07,23,12,52,20.20
2010,07,23,12,53,20.20
2010,07,23,12,54,20.20
2010,07,23,12,55,20.30
2010,07,23,12,56,20.30
2010,07,23,12,57,20.30
2010,07,23,12,58,20.20
2010,07,23,12,59,20.20
2010,07,23,13,00,20.20
2010,07,23,13,01,20.10
2010,07,23,13,02,20.10
2010,07,23,13,03,20.10
2010,07,23,13,04,20.10
2010,07,23,13,05,20.10
2010,07,23,13,06,19.90
2010,07,23,13,07,19.80
2010,07,23,13,08,19.80
2010,07,23,13,09,19.80
2010,07,23,13,10,19.70
2010,07,23,13,11,19.80
2010,07,23,13,12,19.90
2010,07,23,13,13,19.90
2010,07,23,13,14,20.10
2010,07,23,13,15,20.20
2010,07,23,13,16,20.40
2010,07,23,13,17,20.50
2010,07,23,13,18,20.60
2010,07,23,13,19,20.60
2010,07,23,13,20,20.70
2010,07,23,13,21,20.60
2010,07,23,13,22,20.50
2010,07,23,13,23,20.30
2010,07,23,13,24,20.20
2010,07,23,13,25,20.20
2010,07,23,13,26,20.30
2010,07,23,13,27,20.30
2010,07,23,13,28,20.30
2010,07,23,13,29,20.40
2010,07,23,13,30,20.40
2010,07,23,13,31,20.40
2010,07,23,13,32,20.40
2010,07,23,13,33,20.50
2010,07,23,13,34,20.70
2010,07,23,13,35,20.80
2010,07,23,13,36,20.90
2010,07,23,13,37,21.00
2010,07,23,13,38,21.00
2010,07,23,13,39,21.00
2010,07,23,13,40,21.00
2010,07,23,13,41,21.10
2010,07,23,13,42,21.10
2010,07,23,13,43,21.10
2010,07,23,13,44,21.20
2010,07,23,13,45,21.20
2010,07,23,13,46,21.30
2010,07,23,13,47,21.30
2010,07,23,13,48,21.30
2010,07,23,13,49,21.30
2010,07,23,13,50,21.40
2010,07,23,13,51,21.50
2010,07,23,13,52,21.50
2010,07,23,13,53,21.40
2010,07,23,13,54,21.30
2010,07,23,13,55,21.20
2010,07,23,13,56,21.00
2010,07,23,13,57,21.00
2010,07,23,13,58,20.80
2010,07,23,13,59,20.70
2010,07,23,14,00,20.70
2010,07,23,14,01,20.50
2010,07,23,14,02,20.50
2010,07,23,14,03,20.60
2010,07,23,14,04,20.60
2010,07,23,14,05,20.60
2010,07,23,14,06,20.60
2010,07,23,14,07,20.60
2010,07,23,14,08,20.50
2010,07,23,14,09,20.50
2010,07,23,14,10,20.30
2010,07,23,14,11,20.20
2010,07,23,14,12,20.20
2010,07,23,14,13,20.40
2010,07,23,14,14,20.40
2010,07,23,14,15,20.20
2010,07,23,14,16,20.20
2010,07,23,14,17,20.00
2010,07,23,14,18,19.90
2010,07,23,14,19,19.90
2010,07,23,14,20,19.90
2010,07,23,14,21,19.90
2010,07,23,14,22,20.00
2010,07,23,14,23,20.10
2010,07,23,14,24,20.20
2010,07,23,14,25,20.20
2010,07,23,14,26,20.20
2010,07,23,14,27,20.40
2010,07,23,14,28,20.60
2010,07,23,14,29,20.80
2010,07,23,14,30,20.90
2010,07,23,14,31,20.90
2010,07,23,14,32,20.80
2010,07,23,14,33,20.70
2010,07,23,14,34,20.70
2010,07,23,14,35,20.70
2010,07,23,14,36,20.70
2010,07,23,14,37,20.70
2010,07,23,14,38,20.70
2010,07,23,14,39,20.60
2010,07,23,14,40,20.60
2010,07,23,14,41,20.60
2010,07,23,14,42,20.60
2010,07,23,14,43,20.70
2010,07,23,14,44,20.70
2010,07,23,14,45,20.80
2010,07,23,14,46,20.90
2010,07,23,14,47,20.90
2010,07,23,14,48,21.10
2010,07,23,14,49,21.20
2010,07,23,14,50,21.30
2010,07,23,14,51,21.30
2010,07,23,14,52,21.20
2010,07,23,14,53,21.20
2010,07,23,14,54,21.20
2010,07,23,14,55,21.30
2010,07,23,14,56,21.30
2010,07,23,14,57,21.30
2010,07,23,14,58,21.40
2010,07,23,14,59,21.40
2010,07,23,15,00,21.10
2010,07,23,15,01,20.90
2010,07,23,15,02,20.80
2010,07,23,15,03,20.70
2010,07,23,15,04,20.80
2010,07,23,15,05,20.90
2010,07,23,15,06,21.10
2010,07,23,15,07,21.10
2010,07,23,15,08,20.90
2010,07,23,15,09,20.90
2010,07,23,15,10,21.00
2010,07,23,15,11,21.10
2010,07,23,15,12,21.30
2010,07,23,15,13,21.50
2010,07,23,15,14,21.60
2010,07,23,15,15,21.60
2010,07,23,15,16,21.60
2010,07,23,15,17,21.60
2010,07,23,15,18,21.60
2010,07,23,15,19,21.60
2010,07,23,15,20,21.60
2010,07,23,15,21,21.50
2010,07,23,15,22,21.40
2010,07,23,15,23,21.30
2010,07,23,15,24,21.30
2010,07,23,15,25,21.30
2010,07,23,15,26,21.30
2010,07,23,15,27,21.30
2010,07,23,15,28,21.30
2010,07,23,15,29,21.40
2010,07,23,15,30,21.60
2010,07,23,15,31,21.60
2010,07,23,15,32,21.60
2010,07,23,15,33,21.60
2010,07,23,15,34,21.40
2010,07,23,15,35,21.30
2010,07,23,15,36,21.20
2010,07,23,15,37,21.10
2010,07,23,15,38,21.10
2010,07,23,15,39,21.20
2010,07,23,15,40,21.10
2010,07,23,15,41,21.20
2010,07,23,15,42,21.20
2010,07,23,15,43,21.20
2010,07,23,15,44,21.30
2010,07,23,15,45,21.50
2010,07,23,15,46,21.60
2010,07,23,15,47,21.70
2010,07,23,15,48,21.70
2010,07,23,15,49,21.70
2010,07,23,15,50,21.70
2010,07,23,15,51,21.70
2010,07,23,15,52,21.90
2010,07,23,15,53,21.90
2010,07,23,15,54,22.00
2010,07,23,15,55,22.00
2010,07,23,15,56,22.00
2010,07,23,15,57,22.10
2010,07,23,15,58,22.20
2010,07,23,15,59,22.30
2010,07,23,16,00,22.40
2010,07,23,16,01,22.50
2010,07,23,16,02,22.50
2010,07,23,16,03,22.50
2010,07,23,16,04,22.30
2010,07,23,16,05,22.20
2010,07,23,16,06,22.10
2010,07,23,16,07,22.20
2010,07,23,16,08,22.10
2010,07,23,16,09,22.10
2010,07,23,16,10,22.00
2010,07,23,16,11,21.80
2010,07,23,16,12,21.90
2010,07,23,16,13,21.90
2010,07,23,16,14,22.00
2010,07,23,16,15,21.90
2010,07,23,16,16,22.00
2010,07,23,16,17,22.00
2010,07,23,16,18,22.10
2010,07,23,16,19,22.20
2010,07,23,16,20,22.20
2010,07,23,16,21,22.20
2010,07,23,16,22,22.10
2010,07,23,16,23,22.00
2010,07,23,16,24,22.00
2010,07,23,16,25,22.10
2010,07,23,16,26,22.10
2010,07,23,16,27,22.00
2010,07,23,16,28,21.90
2010,07,23,16,29,22.00
2010,07,23,16,30,22.00
2010,07,23,16,31,22.10
2010,07,23,16,32,22.00
2010,07,23,16,33,22.10
2010,07,23,16,34,22.10
2010,07,23,16,35,22.10
2010,07,23,16,36,22.20
2010,07,23,16,37,22.20
2010,07,23,16,38,22.20
2010,07,23,16,39,22.20
2010,07,23,16,40,22.20
2010,07,23,16,41,22.30
2010,07,23,16,42,22.30
2010,07,23,16,43,22.40
2010,07,23,16,44,22.60
2010,07,23,16,45,22.60
2010,07,23,16,46,22.70
2010,07,23,16,47,22.60
2010,07,23,16,48,22.70
2010,07,23,16,49,22.70
2010,07,23,16,50,22.70
2010,07,23,16,51,22.80
2010,07,23,16,52,22.80
2010,07,23,16,53,22.70
2010,07,23,16,54,22.50
2010,07,23,16,55,22.50
2010,07,23,16,56,22.50
2010,07,23,16,57,22.50
2010,07,23,16,58,22.60
2010,07,23,16,59,22.50
2010,07,23,17,00,22.40
2010,07,23,17,01,22.50
2010,07,23,17,02,22.70
2010,07,23,17,03,22.80
2010,07,23,17,04,22.80
2010,07,23,17,05,22.90
2010,07,23,17,06,22.90
2010,07,23,17,07,22.90
2010,07,23,17,08,22.90
2010,07,23,17,09,22.90
2010,07,23,17,10,22.90
2010,07,23,17,11,22.90
2010,07,23,17,12,22.80
2010,07,23,17,13,22.80
2010,07,23,17,14,22.80
2010,07,23,17,15,22.80
2010,07,23,17,16,22.80
2010,07,23,17,17,22.80
2010,07,23,17,18,22.80
2010,07,23,17,19,22.90